Regional Weather Roundup
Issued by NWS Grand Forks, ND

Home | Current Version | Previous Version | Text Only | Print | Product List | Glossary Off
Versions: 1 2 3 4 5 6 7 8 9 10 11 12 13 14 15 16 17 18 19 20 21 22 23 24 25 26 27 28 29 30 31 32 33 34 35 36 37 38 39 40 41 42 43 44 45 46 47 48 49 50

000
ASUS43 KFGF 222231
RWRFGF
PRAIRIE TO PINES  WEATHER ROUNDUP
NATIONAL WEATHER SERVICE EASTERN NORTH DAKOTA/GRAND FORKS ND
400 PM CST SAT NOV 22 2014

 **SATELLITE DATA USED TO AUGMENT SKY COVER AT AUTOMATED STATIONS**
 *****  WEATHER ACROSS EASTERN NORTH DAKOTA  *****

CITY           SKY/WX    TMP DP  RH WIND       PRES   REMARKS
GRAND FORKS    MOCLDY    39  31  72 SE10      29.43F
GRAND FRKS AFB MOCLDY    39  31  71 E9        29.42F
GRAND FRKS NWS   N/A     36 N/A N/A SE13        N/A
DEVILS LAKE    PTCLDY    39  27  60 SE13      29.34F
FARGO          MOCLDY    43  30  60 SE12      29.43F
WAHPETON ARPT  CLEAR     34  30  86 SE14G21   29.44F WCI  24
$$

 ***** WEATHER ACROSS CENTRAL AND WESTERN NORTH DAKOTA  *****

CITY           SKY/WX    TMP DP  RH WIND       PRES   REMARKS
BISMARCK       CLOUDY    42  30  62 SW7       29.34F
MINOT          CLOUDY    42  29  59 SE7       29.27S
JAMESTOWN      PTCLDY    41  28  60 S13       29.37F
MINOT AFB      CLOUDY    40  32  74 SE8       29.26S
GARRISON         N/A     41  31  67 S7        29.30S
WILLISTON      CLOUDY    41  31  67 SW12      29.25R
DICKINSON      LGT RAIN  40  38  93 W15       29.33R
HETTINGER      MOCLDY    42  35  76 NW14      29.38S
$$

 *****  OTHER AIRPORT OBSERVATIONS IN OUR AREA  *****

CITY           SKY/WX    TMP DP  RH WIND       PRES   REMARKS
WALHALLA         N/A     32  32 100 E8        29.44F WCI  25
GRAFTON AIRPOR FAIR      34  30  86 E10       29.44F
VALLEY CITY AR FAIR      41  30  65 SE8       29.40R
CANDO          MOCLDY    37  30  75 SE12      29.34F
CAVALIER APRT  FAIR      36  30  80 SE7       29.44F
GWINNER        CLEAR     37  32  81 SE9       29.42S
SHEYENNE NWR     N/A     42  30  63 SE7       29.95S
ROLLA          MOCLDY    32  32 100 SE10      29.35R WCI  24
 ***** THE ABOVE OBSERVATIONS ARE NON NWS ARE NOT QUALITY
       CONTROLLED AND MAY MIS-REPORT RAIN FOR SNOW...
$$

  *****  WEATHER ACROSS NORTHERN MINNESOTA  *****

CITY           SKY/WX    TMP DP  RH WIND       PRES   REMARKS
FLAG ISLAND    CLOUDY    34  28  80 E3        29.52S
WARROAD        CLOUDY    34  28  80 NE8       29.51F FOG
ROSEAU         CLOUDY    36  30  80 E8        29.49F
HALLOCK        CLOUDY    37  32  81 SE7       29.45F
THF RVR FALLS  CLOUDY    36  30  80 E8        29.47F
BAUDETTE       MOCLDY    35  30  82 E7        29.51F
WASKISH        CLOUDY    39  30  70 CALM      29.51F
CROOKSTON      CLOUDY    37  30  75 E8        29.45F
STEPHEN NDAWN    N/A     36  30  80 SE9         N/A
GREENBUSH NDAW   N/A     36  32  87 E7          N/A
$$
  *****  WEATHER ACROSS CENTRAL AND WEST MINNESOTA  *****

CITY           SKY/WX    TMP DP  RH WIND       PRES   REMARKS
FOSSTON        MOCLDY    37  32  81 E3        29.46F
BEMIDJI        MOCLDY    40  30  69 E5        29.50F
PARK RAPIDS    PTCLDY    43  30  60 SE10      29.48F
ELBOW LAKE       N/A     34  31  90 SE16      29.45F WCI  23
WADENA         MOCLDY    36  28  75 SE12      29.49F
DETROIT LAKES  MOCLDY    41  32  70 SE12      29.46F
MOORHEAD       CLOUDY    43  34  70 SE12      29.44F
FERGUS FALLS   PTCLDY    39  28  65 SE14      29.47F
MORRIS MN      MIX PCPN  34  32  93 SE25G31   29.47F VSB 1/4 WCI  21
STAPLES        PTCLDY    36  28  75 SE9       29.53F
$$
  *****  WEATHER ELSEWHERE ACROSS MINNESOTA  *****

CITY           SKY/WX    TMP DP  RH WIND       PRES   REMARKS
DULUTH         MOCLDY    34  30  85 S5        29.62S FOG
INTRNTL FALLS  CLOUDY    36  30  79 SE6       29.56S
ELY            CLOUDY    34  32  93 CALM      29.60S FOG
CLOQUET        CLOUDY    36  30  80 S5        29.62S FOG
WHEATON        FAIR      32  30  93 SE21      29.46F WCI  20
BRAINERD       MOCLDY    34  30  85 S8        29.57F FOG
HIBBING        MOCLDY    40  28  62 SE10      29.58R
ALEXANDRIA     FOG       32  31  96 SE18G24   29.52F VSB 3/4 WCI  20
SAINT CLOUD    FOG       34  32  92 SE13      29.61F VSB 1   WCI  25
MINNEAPOLIS    CLOUDY    35  33  92 S8        29.67F FOG
$$

  *****  WEATHER ACROSS SOUTH DAKOTA  *****

CITY           SKY/WX    TMP DP  RH WIND       PRES   REMARKS
SIOUX FALLS    MOCLDY    43  36  76 S13       29.52F
BROOKINGS      NOT AVBL
WATERTOWN      PTCLDY    35  31  85 S17       29.44F WCI  25
HURON          PTCLDY    43  34  70 S15G21    29.41F
SISSETON         N/A     36  32  85 S14       29.44F
ABERDEEN       CLEAR     37  31  78 S13       29.40S
MITCHELL       MOCLDY    50  37  61 S13       29.43F
PIERRE         CLOUDY    42  32  67 CALM      29.38R
MOBRIDGE       CLOUDY    44  32  62 CALM      29.36R
RAPID CITY     CLOUDY    52  29  41 SW7       29.39S
$$

  *****  SOME WEATHER IN NEARBY STATES *****

CITY           SKY/WX    TMP DP  RH WIND       PRES   REMARKS
GLASGOW MT     PTCLDY    47  33  58 W12       29.24R
GREAT FALLS MT SUNNY     43  18  36 W33       29.37R
CHEYENNE WY    CLOUDY    51  18  27 W20G29    29.61S
SCOTTSBLUFF NE CLOUDY    56  23  27 W7        29.52F
OMAHA NE       PTCLDY    57  48  72 S18       29.66F
DES MOINES IA  DRIZZLE   52  49  89 S10       29.73S FOG
DAVENPORT IA   CLOUDY    54  47  77 S15       29.81F
CHICAGO IL     CLOUDY    50  45  83 S10       29.86S
EAU CLAIRE WI  FOG       36  34  92 S5        29.71S VSB 1/2
LA CROSSE WI   CLOUDY    40  37  89 S6        29.74S
$$

  *****  SOME NATIONAL WEATHER *****

CITY           SKY/WX    TMP DP  RH WIND       PRES   REMARKS
LA GUARDIA NY  MOCLDY    42  17  36 SW14G24   30.26F
RALEIGH NC     PTCLDY    50  12  21 S3        30.39F
ATLANTA GA     MOCLDY    59  30  33 E8        30.27S
NEW ORLEANS LA PTSUNNY   66  59  78 E7        30.06F
OKLAHOMA CITY  LGT RAIN  56  53  90 SE25G32   29.76F FOG
ALBUQUERQUE NM PTSUNNY   58  18  21 CALM      29.93F
SALT LAKE CITY LGT RAIN  45  39  79 S14       29.74S
LOS ANGELES CA MOSUNNY   67  57  70 W12       30.04F
BOISE ID       CLOUDY    45  36  70 NW10      29.82R
SEATTLE WA     CLOUDY    48  43  82 S7        29.90R
$$

*** WEATHER ACROSS MANITOBA...SASKATCHEWAN AND ONTARIO ***
                ***ONTARIO***

CITY           SKY/WX    TMP DP  RH WIND       PRES   REMARKS
GERALDTON      CLOUDY    30  25  80 N5        29.63R
THUNDER BAY    CLOUDY    37  30  75 E3        29.65R
SIOUX LOOKOUT  CLOUDY    27  23  86 VRB2      29.61R
TORONTO        LGT RAIN  39  36  87 S8        29.94S
BIG TROUT LK   CLEAR      3   0  85 W2        29.70R
PICKLE LAKE    FLURRIES  18  10  73 N3        29.64R
DRYDEN         CLOUDY    28  25  86 E3        29.58S
KENORA         FLURRIES  30  27  86 E7        29.53F WCI  23
$$
                *** MANITOBA***

CITY           SKY/WX    TMP DP  RH WIND       PRES   REMARKS
BRANDON        FRZ RAIN  27  25  93 E21G29    29.37F VSB 3/4 WCI  13
DAUPHIN        NOT AVBL
ISLAND LAKE    MOCLDY     7   1  78 NE6       29.68  WCI  -3
PILOT MOUND      N/A     30  28  93 E14         N/A  WCI  20
THE PAS        CLOUDY    10   7  85 E7        29.57F WCI   0
THOMPSON       MOCLDY    -4  -8  84 CALM      29.72R
WINNIPEG       CLOUDY    27  21  80 E13       29.50F WCI  16
LYNN LAKE      MOCLDY    -4  -8  84 NE6       29.66S WCI -16
CHURCHILL      CRYSTALS -11 -17  77 NW10      29.76S WCI -30
GILLAM         MOCLDY   -11 -17  77 NW3       29.77S
$$
                ***SASKATCHEWAN***

CITY           SKY/WX    TMP DP  RH WIND       PRES   REMARKS
ESTEVAN        CLOUDY    39  32  75 SE8       29.21R
KINDERSLEY     LGT SNOW  32  32 100 N13       29.08R WCI  22
LLOYDMINSTER   LGT SNOW  23  21  93 NE13      29.24R VSB 3/4 WCI  11
PRINCE ALBERT  LGT SNOW  21  18  86 E21       29.31S DRFTSNOWWCI   6
REGINA         MOCLDY    36  34  93 SE15      29.12F
YORKTON        LGT SNOW  25  23  93 E16G22    29.26S WCI  12
N. BATTLEFORD  LGT SNOW  23  21  93 NE17      29.22R WCI   9
LA RONGE       FLURRIES  12   9  85 NE10      29.53R WCI  -1
SASKATOON      LGT SNOW  28  27  93 E20G28    29.15R DRFTSNOWWCI  15
SWIFT CURRENT  MOCLDY    41  32  70 W22G31    29.04R
$$
NOTE: THESE ARE AUTOMATED STATIONS WITH LIMITED QUALITY CONTROL
      "FAIR" INDICATES FEW OR NO CLOUDS BELOW 12,000 FEET WITH NO
      SIGNIFICANT WEATHER AND/OR OBSTRUCTIONS TO VISIBILITY.
      SKY/WX - SKY CONDITION AND SIGNIFICANT WEATHER.
      TMP - AIR TEMPERATURE.    DP   - DEWPOINT TEMPERATURE.
      RH  - RELATIVE HUMIDITY.  PRES - PRESSURE.
      HX  - HEAT INDEX.         WCI  - WIND CHILL INDEX.
$



USA.gov is the U.S. government's official web portal to all federal, state and local government web resources and services.